Overview Statistics Trail Chart Weather Telemetry Raw packets
 

This is the latest recevied weather packets stored in our database for station/object KD7CTY. If no packets are shown the sender has not sent any weather packets the latest 10 day(s).

<< 5 6 7 8 9 10 11 >>
Time Temp. Humidity Pressure Rain* Wind** Luminosity Snow
1788567263 18.89° C 64% 1013.1 hPa 0 mm - 47 W/m² -
1788566944 19.44° C 62% 1013.2 hPa 0 mm - 44 W/m² -
1788566639 20° C 62% 1013 hPa 0 mm - 50 W/m² -
1788566334 20° C 59% 1013 hPa 0 mm - 47 W/m² -
1788566030 21.11° C 57% 1012.9 hPa 0 mm - 71 W/m² -
1788565730 21.11° C 57% 1012.9 hPa 0 mm - 403 W/m² -
1788565425 21.11° C 56% 1012.9 hPa 0 mm - 412 W/m² -
1788565121 21.67° C 56% 1013 hPa 0 mm - 422 W/m² -
1788564816 21.67° C 57% 1013 hPa 0 mm - 455 W/m² -
1788564513 21.67° C 56% 1013 hPa 0 mm - 467 W/m² -
1788564209 21.67° C 57% 1012.7 hPa 0 mm - 472 W/m² -
1788563905 21.67° C 56% 1012.9 hPa 0 mm - 471 W/m² -
1788563599 22.22° C 55% 1012.8 hPa 0 mm - 475 W/m² -
1788563295 22.22° C 55% 1012.6 hPa 0 mm - 482 W/m² -
1788562993 22.22° C 56% 1012.8 hPa 0 mm - 456 W/m² -
1788562688 21.67° C 57% 1012.8 hPa 0 mm - 505 W/m² -
1788562387 22.22° C 55% 1012.6 hPa 0 mm - 498 W/m² -
1788562086 21.67° C 55% 1012.7 hPa 0 mm - 507 W/m² -
1788561782 22.22° C 57% 1012.6 hPa 0 mm - 526 W/m² -
1788561481 21.67° C 54% 1012.7 hPa 0 mm - 531 W/m² -
1788561176 21.67° C 57% 1012.8 hPa 0 mm - 541 W/m² -
1788560872 21.67° C 56% 1012.7 hPa 0 mm - 542 W/m² -
1788560567 21.11° C 56% 1012.7 hPa 0 mm - 552 W/m² -
1788560264 21.67° C 57% 1012.7 hPa 0 mm - 565 W/m² -
1788559956 21.67° C 57% 1012.7 hPa 0 mm - 563 W/m² -

* Rain latest hour (hover to see other rain measurements)
** Current wind speed in m/s (hover to see current wind gust speed)